SCP
0 0 0 0 0 0 0 0 0 0 0 0 0 0 0 0 0 0 0 0 0 0 0 0 0 0 0 0 0 0 0 0 0 0 0 0 0 0 0 0 0 0 0
0 0 0 0 0 0 0 0 0 0 0 0 0 0 0 0 0 0 0 0 0 0 0 0 0 0 0 0 0 0 0 0 0 0 0 0 0 0 0 0 0 0 0
0 0 0 0 0 0 0 0 0 0 0 0 0 0 0 0 0 0 0 0 0 0 0 0 0 0 0 0 0 0 0 0 0 0 0 0 0 0 0 0 0 0 0
0 0 0 0 0 0 0 0 0 0 0 0 0 0 0 0 0 0 0 0 0 0 0 0 0 0 0 0 0 0 0 0 0 0 0 0 0 0 0 0 0 0 0
0 0 0 0 0 0 0 0 0 0 0 0 0 0 0 0 0 0 0 0 0 0 0 0 0 0 0 0 0 0 0 0 0 0 0 0 0 0 0 0 0 0 0
0 0 0 0 0 0 0 0 0 0 0 0 0 0 0 0 0 0 0 0 0 0 0 0 0 0 0 0 0 0 0 0 0 0 0 0 0 0 0 0 0 0 0
0 0 0 0 0 0 0 0 0 0 0 0 0 0 0 0 0 0 0 0 0 0 0 0 0 0 0 0 0 0 0 0 0 0 0 0 0 0 0 0 0 0 0
0 0 0 0 0 0 0 0 0 0 0 0 0 0 0 0 0 0 0 0 0 0 0 0 0 0 0 0 0 0 0 0 0 0 0 0 0 0 0 0 0 0 0
0 0 0 0 0 0 0 0 0 0 0 0 0 0 0 0 0 0 0 0 0 0 0 0 0 0 0 0 0 0 0 0 0 0 0 0 0 0 0 0 0 0 0
0 0 0 0 0 0 0 0 0 0 0 0 0 0 0 0 0 0 0 0 0 0 0 0 0 0 0 0 0 0 0 0 0 0 0 0 0 0 0 0 0 0 0
0 0 0 0 0 0 0 0 0 0 0 0 0 0 0 0 0 0 0 0 0 0 0 0 0 0 0 0 0 0 0 0 0 0 0 0 0 0 0 0 0 0 0
0 0 0 0 0 0 0 0 0 0 0 0 0 0 0 0 0 0 0 0 0 0 0 0 0 0 0 0 0 0 0 0 0 0 0 0 0 0 0 0 0 0 0
0 0 0 0 0 0 0 0 0 0 0 0 0 0 0 0 0 0 0 0 0 0 0 0 0 0 0 0 0 0 0 0 0 0 0 0 0 0 0 0 0 0 0
0 0 0 0 0 0 0 0 0 0 0 0 0 0 0 0 0 0 0 0 0 0 0 0 0 0 0 0 0 0 0 0 0 0 0 0 0 0 0 0 0 0 0
0 0 0 0 0 0 0 0 0 0 0 0 0 0 0 0 0 0 0 0 0 0 0 0 0 0 0 0 0 0 0 0 0 0 0 0 0 0 0 0 0 0 0
0 0 0 0 0 0 0 0 0 0 0 0 0 0 0 0 0 0 0 0 0 0 0 0 0 0 0 0 0 0 0 0 0 0 0 0 0 0 0 0 0 0 0
0 0 0 0 0 0 0 0 0 0 0 0 0 0 0 0 0 0 0 0 0 0 0 0 0 0 0 0 0 0 0 0 0 0 0 0 0 0 0 0 0 0 0
0 0 0 0 0 0 0 0 0 0 0 0 0 0 0 0 0 0 0 0 0 0 0 0 0 0 0 0 0 0 0 0 0 0 0 0 0 0 0 0 0 0 0
0 0 0 0 0 0 0 0 0 0 0 0 0 0 0 0 0 0 0 0 0 0 0 0 0 0 0 0 0 0 0 0 0 0 0 0 0 0 0 0 0 0 0
0 0 0 0 0 0 0 0 0 0 0 0 0 0 0 0 0 0 0 0 0 0 0 0 0 0 0 0 0 0 0 0 0 0 0 0 0 0 0 0 0 0 0
0 0 0 0 0 0 0 0 0 0 0 0 0 0 0 0 0 0 0 0 0 0 0 0 0 0 0 0 0 0 0 0 0 0 0 0 0 0 0 0 0 0 0
0 0 0 0 0 0 0 0 0 0 0 0 0 0 0 0 0 0 0 0 0 0 0 0 0 0 0 0 0 0 0 0 0 0 0 0 0 0 0 0 0 0 0
0 0 0 0 0 0 0 0 0 0 0 0 0 0 0 0 0 0 0 0 0 0 0 0 0 0 0 0 0 0 0 0 0 0 0 0 0 0 0 0 0 0 0
0 0 0 0 0 0 0 0 0 0 0 0 0 0 0 0 0 0 0 0 0 0 0 0 0 0 0 0 0 0 0 0 0 0 0 0 0 0 0 0 0 0 0
0 0 0 0 0 0 0 0 0 0 0 0 0 0 0 0 0 0 0 0 0 0 0 0 0 0 0 0 0 0 0 0 0 0 0 0 0 0 0 0 0 0 0
0 0 0 0 0 0 0 0 0 0 0 0 0 0 0 0 0 0 0 0 0 0 0 0 0 0 0 0 0 0 0 0 0 0 0 0 0 0 0 0 0 0 0
Wind_Speed_500mb
35 39 43 43 41 39 38 35 33 33 35 32 36 39 40 40 40 44 46 46 46 47 46 48 49 49 46 44 44 44 45 46 54 48 37 41 39 40 36 33 34 36 32
32 37 41 42 45 43 41 41 42 40 38 35 35 33 32 33 34 37 39 42 44 45 46 47 48 47 44 39 42 40 47 48 48 48 45 37 43 44 34 31 32 35 28
34 34 39 45 45 45 46 46 42 38 34 32 29 28 31 35 35 36 37 38 40 43 45 44 45 47 42 38 33 33 42 40 42 44 43 45 37 38 35 35 34 31 28
40 40 39 40 40 40 39 37 34 30 29 30 28 30 30 30 30 30 31 32 34 38 41 43 44 41 37 34 37 38 38 41 37 40 43 40 40 39 41 38 36 34 32
36 34 34 34 33 33 31 30 30 31 30 28 26 25 25 26 27 29 31 34 37 40 43 44 45 42 38 39 42 40 37 35 37 39 42 45 45 46 46 41 37 34 32
31 32 31 30 32 31 32 33 31 27 24 23 22 22 25 28 30 33 35 38 41 45 46 47 47 46 42 42 47 48 48 46 48 49 49 47 44 40 41 42 39 39 35
30 33 33 33 31 31 28 25 24 22 21 21 23 26 29 32 36 40 43 45 46 46 47 48 46 44 43 41 43 44 48 48 48 47 41 38 35 34 36 39 40 35 33
29 26 25 25 25 23 22 23 22 20 21 23 26 30 33 36 41 45 48 49 47 43 43 46 44 39 37 37 41 41 38 35 35 34 35 32 30 30 31 27 25 31 34
21 21 21 21 21 20 20 21 21 22 23 26 30 33 36 39 44 50 51 47 42 38 35 37 37 35 34 32 32 29 28 27 26 26 29 31 30 29 29 32 37 38 37
18 18 20 21 22 21 21 23 23 24 26 29 34 36 39 42 46 49 46 42 39 38 32 29 31 31 30 30 28 26 24 24 25 24 27 28 28 30 31 32 31 33 33
17 20 22 23 21 21 24 25 26 27 30 32 35 38 41 42 41 39 39 40 36 35 30 27 27 27 27 29 27 24 23 25 25 23 24 24 25 28 30 31 31 32 31
18 19 21 22 24 27 28 29 30 29 30 35 39 40 41 39 36 31 29 33 39 37 31 29 27 25 27 25 27 21 26 28 28 27 26 25 25 27 27 28 30 30 29
20 21 23 26 29 29 30 30 29 28 32 36 39 42 41 36 32 31 34 34 36 42 33 31 30 23 25 25 27 25 28 28 28 29 26 22 23 25 26 26 28 27 26
26 27 28 29 29 31 32 31 31 31 32 34 36 36 37 37 34 35 37 37 34 40 36 28 22 26 31 31 29 29 31 29 26 26 24 25 29 28 27 28 27 26 26
23 25 28 29 30 31 30 30 31 31 32 32 31 32 35 41 36 40 41 39 35 34 35 30 30 31 32 35 33 31 31 31 31 27 29 30 31 30 30 29 28 28 26
19 22 24 27 28 30 31 32 32 32 33 32 31 34 33 39 39 39 39 37 35 33 40 35 33 31 34 34 34 31 33 32 30 29 31 33 33 32 31 32 31 29 26
22 25 28 31 32 35 36 37 37 33 33 32 35 34 37 39 38 37 39 36 33 34 43 37 33 35 36 34 32 32 33 30 29 31 34 35 34 35 38 37 35 33 28
26 28 30 32 35 36 37 39 42 40 34 35 34 39 35 36 36 37 40 36 38 39 46 41 39 41 34 36 34 33 29 30 36 37 38 40 41 40 42 41 41 34 32
26 27 31 35 36 38 39 39 42 41 40 38 31 32 31 35 36 35 35 42 43 40 43 47 48 44 36 33 32 33 35 36 37 41 42 44 44 45 47 46 45 41 41
26 27 32 36 36 38 37 38 40 40 39 38 35 33 31 34 37 30 32 40 44 41 42 46 50 48 41 37 36 37 39 39 41 43 45 45 45 47 49 49 48 49 50
23 23 24 26 28 31 33 34 35 36 37 38 36 33 34 35 39 35 32 35 39 41 40 44 50 51 46 44 43 43 43 44 45 47 46 48 48 51 49 50 52 52 52
24 25 24 24 24 26 29 32 33 33 34 36 36 36 34 35 39 39 37 37 37 37 37 41 46 53 54 51 50 51 52 51 50 50 50 50 51 52 53 54 56 55 54
22 22 22 24 26 27 27 28 28 30 32 34 35 37 37 37 39 42 44 43 41 41 40 41 43 48 56 59 55 55 57 56 55 53 52 54 54 54 55 57 57 59 59
24 24 24 24 24 24 26 30 33 33 33 36 37 39 40 39 39 43 44 44 43 42 42 43 45 46 48 50 54 59 62 61 62 62 59 59 61 59 59 61 63 63 61
25 25 26 27 27 27 28 30 31 32 34 35 37 38 39 40 41 40 37 38 40 41 43 46 48 50 51 51 52 53 55 57 61 66 69 70 70 67 68 67 64 63 62
29 30 31 31 32 33 33 34 35 34 34 33 34 35 37 38 38 37 39 41 41 44 47 47 47 49 48 49 51 50 51 53 54 55 60 67 73 75 72 71 69 70 71
Wind_Direction_500mb
225 231 225 220 228 228 229 227 225 242 260 261 265 269 277 278 277 277 279 282 285 285 283 282 282 281 278 273 266 266 259 252 269 265 254 266 251 250 260 259 267 278 276
222 227 224 220 219 223 219 225 248 248 248 252 266 273 278 279 280 281 282 283 284 284 285 287 287 285 283 272 266 269 265 261 260 266 257 240 255 243 243 251 260 275 265
222 220 217 218 224 230 237 243 240 236 238 256 258 268 275 278 279 280 282 284 287 289 289 289 285 284 284 275 265 263 271 267 269 261 264 252 243 244 245 252 257 261 249
222 224 227 231 235 235 233 230 228 238 249 256 265 271 274 278 282 285 289 293 295 295 294 293 289 286 284 278 268 266 263 254 252 266 257 259 259 252 253 248 248 253 245
221 222 222 225 225 225 227 233 243 253 259 265 268 272 278 282 286 292 297 302 302 301 298 293 290 283 274 271 268 267 264 261 260 261 264 269 260 251 246 244 239 241 240
220 222 226 227 226 229 238 245 249 251 256 262 267 274 277 283 289 293 295 297 300 302 300 293 285 279 272 267 265 265 264 264 267 269 267 264 261 253 243 235 233 226 225
231 231 225 227 230 229 232 239 244 248 253 262 272 280 287 293 295 296 298 299 300 300 300 295 285 279 271 266 266 264 263 264 261 259 260 262 256 250 239 234 228 232 231
210 207 207 208 213 221 230 237 241 250 261 271 279 284 289 292 295 297 298 300 299 300 307 305 289 282 279 277 273 269 269 262 255 252 248 244 244 243 234 233 238 231 227
196 201 206 214 219 223 228 239 250 259 269 277 281 285 290 294 296 298 299 299 297 296 307 314 294 286 283 281 280 272 267 260 253 247 241 237 239 231 226 226 222 221 224
208 207 214 219 222 226 234 244 254 265 275 283 288 291 293 296 297 297 297 299 303 300 300 297 287 282 276 274 268 259 255 255 254 248 247 244 243 234 223 223 224 231 231
214 215 220 227 233 238 244 251 258 265 273 280 287 292 296 296 293 294 297 300 307 308 303 290 281 277 271 266 262 257 252 249 250 249 244 237 234 230 227 226 226 224 222
228 230 233 238 241 244 247 251 258 267 280 292 296 298 298 294 296 300 302 303 305 306 297 284 271 268 269 264 270 260 253 250 249 248 242 240 236 233 228 224 221 218 217
244 243 243 242 243 246 251 254 261 271 282 292 298 302 300 295 296 300 299 296 294 297 291 279 269 267 271 264 263 260 256 253 251 248 247 238 232 228 224 217 215 214 216
249 245 243 245 249 250 252 255 264 271 282 288 294 300 301 298 293 293 292 288 286 289 292 269 269 269 271 267 261 258 254 256 252 246 238 232 227 228 225 221 221 221 225
242 243 246 248 248 250 252 257 264 273 280 286 291 292 298 300 296 285 285 283 280 280 272 259 260 263 264 267 265 262 258 252 248 241 235 231 229 227 226 226 227 230 236
253 251 250 251 252 254 255 258 264 271 275 280 287 292 295 301 292 285 286 282 273 271 259 257 258 264 267 268 264 260 258 255 252 245 239 235 233 232 232 233 235 237 237
269 264 262 261 260 259 261 262 262 264 272 279 283 284 292 299 290 282 284 280 265 259 255 258 255 250 265 270 269 266 259 253 252 247 242 237 234 233 234 235 238 238 236
274 274 273 270 268 263 263 263 264 266 268 271 277 280 286 291 286 280 282 274 265 254 259 258 252 260 264 271 269 267 266 259 253 247 246 241 237 236 239 240 241 243 242
279 280 282 280 269 269 267 265 266 265 267 269 275 274 283 284 281 271 270 269 272 267 263 262 258 261 269 272 272 270 268 264 259 254 250 247 244 242 243 245 245 244 243
285 287 288 283 276 262 265 264 266 264 265 268 272 278 278 279 282 281 275 271 279 280 272 264 264 263 269 272 270 269 268 263 259 257 255 252 249 247 248 248 248 248 249
287 287 283 283 274 268 266 266 266 265 268 270 276 279 278 276 279 282 281 280 281 282 278 271 265 258 267 273 272 270 268 267 265 263 260 256 253 252 252 252 251 249 250
290 287 285 282 279 274 269 266 267 269 271 274 276 275 274 272 275 278 279 280 282 282 281 275 268 260 263 267 269 267 265 264 263 262 263 261 258 256 254 252 252 252 252
301 300 297 291 283 275 271 270 272 274 275 276 277 278 277 277 277 279 280 280 277 275 274 273 271 268 265 267 267 264 263 263 264 263 261 260 258 256 256 256 256 255 252
307 305 305 304 302 298 294 284 274 270 273 275 278 281 282 282 282 279 278 278 277 276 273 271 270 270 270 270 267 264 261 260 261 261 258 258 258 255 253 254 254 254 254
311 310 309 308 307 305 303 301 299 294 288 283 278 273 274 274 275 279 283 285 286 284 281 277 274 273 271 271 271 270 267 264 259 257 256 255 254 254 252 252 252 254 253
315 314 312 309 308 306 306 303 300 298 298 297 295 295 296 291 286 286 277 282 279 279 280 281 281 277 275 274 272 272 270 267 265 261 259 259 255 254 255 255 255 254 252
Wind_Speed_850mb
35 39 43 43 41 39 38 35 33 33 35 32 36 39 40 40 40 44 46 46 46 47 46 48 49 49 46 44 44 44 45 46 54 48 37 41 39 40 36 33 34 36 32
32 37 41 42 45 43 41 41 42 40 38 35 35 33 32 33 34 37 39 42 44 45 46 47 48 47 44 39 42 40 47 48 48 48 45 37 43 44 34 31 32 35 28
34 34 39 45 45 45 46 46 42 38 34 32 29 28 31 35 35 36 37 38 40 43 45 44 45 47 42 38 33 33 42 40 42 44 43 45 37 38 35 35 34 31 28
40 40 39 40 40 40 39 37 34 30 29 30 28 30 30 30 30 30 31 32 34 38 41 43 44 41 37 34 37 38 38 41 37 40 43 40 40 39 41 38 36 34 32
36 34 34 34 33 33 31 30 30 31 30 28 26 25 25 26 27 29 31 34 37 40 43 44 45 42 38 39 42 40 37 35 37 39 42 45 45 46 46 41 37 34 32
31 32 31 30 32 31 32 33 31 27 24 23 22 22 25 28 30 33 35 38 41 45 46 47 47 46 42 42 47 48 48 46 48 49 49 47 44 40 41 42 39 39 35
30 33 33 33 31 31 28 25 24 22 21 21 23 26 29 32 36 40 43 45 46 46 47 48 46 44 43 41 43 44 48 48 48 47 41 38 35 34 36 39 40 35 33
29 26 25 25 25 23 22 23 22 20 21 23 26 30 33 36 41 45 48 49 47 43 43 46 44 39 37 37 41 41 38 35 35 34 35 32 30 30 31 27 25 31 34
21 21 21 21 21 20 20 21 21 22 23 26 30 33 36 39 44 50 51 47 42 38 35 37 37 35 34 32 32 29 28 27 26 26 29 31 30 29 29 32 37 38 37
18 18 20 21 22 21 21 23 23 24 26 29 34 36 39 42 46 49 46 42 39 38 32 29 31 31 30 30 28 26 24 24 25 24 27 28 28 30 31 32 31 33 33
17 20 22 23 21 21 24 25 26 27 30 32 35 38 41 42 41 39 39 40 36 35 30 27 27 27 27 29 27 24 23 25 25 23 24 24 25 28 30 31 31 32 31
18 19 21 22 24 27 28 29 30 29 30 35 39 40 41 39 36 31 29 33 39 37 31 29 27 25 27 25 27 21 26 28 28 27 26 25 25 27 27 28 30 30 29
20 21 23 26 29 29 30 30 29 28 32 36 39 42 41 36 32 31 34 34 36 42 33 31 30 23 25 25 27 25 28 28 28 29 26 22 23 25 26 26 28 27 26
26 27 28 29 29 31 32 31 31 31 32 34 36 36 37 37 34 35 37 37 34 40 36 28 22 26 31 31 29 29 31 29 26 26 24 25 29 28 27 28 27 26 26
23 25 28 29 30 31 30 30 31 31 32 32 31 32 35 41 36 40 41 39 35 34 35 30 30 31 32 35 33 31 31 31 31 27 29 30 31 30 30 29 28 28 26
19 22 24 27 28 30 31 32 32 32 33 32 31 34 33 39 39 39 39 37 35 33 40 35 33 31 34 34 34 31 33 32 30 29 31 33 33 32 31 32 31 29 26
22 25 28 31 32 35 36 37 37 33 33 32 35 34 37 39 38 37 39 36 33 34 43 37 33 35 36 34 32 32 33 30 29 31 34 35 34 35 38 37 35 33 28
26 28 30 32 35 36 37 39 42 40 34 35 34 39 35 36 36 37 40 36 38 39 46 41 39 41 34 36 34 33 29 30 36 37 38 40 41 40 42 41 41 34 32
26 27 31 35 36 38 39 39 42 41 40 38 31 32 31 35 36 35 35 42 43 40 43 47 48 44 36 33 32 33 35 36 37 41 42 44 44 45 47 46 45 41 41
26 27 32 36 36 38 37 38 40 40 39 38 35 33 31 34 37 30 32 40 44 41 42 46 50 48 41 37 36 37 39 39 41 43 45 45 45 47 49 49 48 49 50
23 23 24 26 28 31 33 34 35 36 37 38 36 33 34 35 39 35 32 35 39 41 40 44 50 51 46 44 43 43 43 44 45 47 46 48 48 51 49 50 52 52 52
24 25 24 24 24 26 29 32 33 33 34 36 36 36 34 35 39 39 37 37 37 37 37 41 46 53 54 51 50 51 52 51 50 50 50 50 51 52 53 54 56 55 54
22 22 22 24 26 27 27 28 28 30 32 34 35 37 37 37 39 42 44 43 41 41 40 41 43 48 56 59 55 55 57 56 55 53 52 54 54 54 55 57 57 59 59
24 24 24 24 24 24 26 30 33 33 33 36 37 39 40 39 39 43 44 44 43 42 42 43 45 46 48 50 54 59 62 61 62 62 59 59 61 59 59 61 63 63 61
25 25 26 27 27 27 28 30 31 32 34 35 37 38 39 40 41 40 37 38 40 41 43 46 48 50 51 51 52 53 55 57 61 66 69 70 70 67 68 67 64 63 62
29 30 31 31 32 33 33 34 35 34 34 33 34 35 37 38 38 37 39 41 41 44 47 47 47 49 48 49 51 50 51 53 54 55 60 67 73 75 72 71 69 70 71
Wind_Direction_850mb
225 231 225 220 228 228 229 227 225 242 260 261 265 269 277 278 277 277 279 282 285 285 283 282 282 281 278 273 266 266 259 252 269 265 254 266 251 250 260 259 267 278 276
222 227 224 220 219 223 219 225 248 248 248 252 266 273 278 279 280 281 282 283 284 284 285 287 287 285 283 272 266 269 265 261 260 266 257 240 255 243 243 251 260 275 265
222 220 217 218 224 230 237 243 240 236 238 256 258 268 275 278 279 280 282 284 287 289 289 289 285 284 284 275 265 263 271 267 269 261 264 252 243 244 245 252 257 261 249
222 224 227 231 235 235 233 230 228 238 249 256 265 271 274 278 282 285 289 293 295 295 294 293 289 286 284 278 268 266 263 254 252 266 257 259 259 252 253 248 248 253 245
221 222 222 225 225 225 227 233 243 253 259 265 268 272 278 282 286 292 297 302 302 301 298 293 290 283 274 271 268 267 264 261 260 261 264 269 260 251 246 244 239 241 240
220 222 226 227 226 229 238 245 249 251 256 262 267 274 277 283 289 293 295 297 300 302 300 293 285 279 272 267 265 265 264 264 267 269 267 264 261 253 243 235 233 226 225
231 231 225 227 230 229 232 239 244 248 253 262 272 280 287 293 295 296 298 299 300 300 300 295 285 279 271 266 266 264 263 264 261 259 260 262 256 250 239 234 228 232 231
210 207 207 208 213 221 230 237 241 250 261 271 279 284 289 292 295 297 298 300 299 300 307 305 289 282 279 277 273 269 269 262 255 252 248 244 244 243 234 233 238 231 227
196 201 206 214 219 223 228 239 250 259 269 277 281 285 290 294 296 298 299 299 297 296 307 314 294 286 283 281 280 272 267 260 253 247 241 237 239 231 226 226 222 221 224
208 207 214 219 222 226 234 244 254 265 275 283 288 291 293 296 297 297 297 299 303 300 300 297 287 282 276 274 268 259 255 255 254 248 247 244 243 234 223 223 224 231 231
214 215 220 227 233 238 244 251 258 265 273 280 287 292 296 296 293 294 297 300 307 308 303 290 281 277 271 266 262 257 252 249 250 249 244 237 234 230 227 226 226 224 222
228 230 233 238 241 244 247 251 258 267 280 292 296 298 298 294 296 300 302 303 305 306 297 284 271 268 269 264 270 260 253 250 249 248 242 240 236 233 228 224 221 218 217
244 243 243 242 243 246 251 254 261 271 282 292 298 302 300 295 296 300 299 296 294 297 291 279 269 267 271 264 263 260 256 253 251 248 247 238 232 228 224 217 215 214 216
249 245 243 245 249 250 252 255 264 271 282 288 294 300 301 298 293 293 292 288 286 289 292 269 269 269 271 267 261 258 254 256 252 246 238 232 227 228 225 221 221 221 225
242 243 246 248 248 250 252 257 264 273 280 286 291 292 298 300 296 285 285 283 280 280 272 259 260 263 264 267 265 262 258 252 248 241 235 231 229 227 226 226 227 230 236
253 251 250 251 252 254 255 258 264 271 275 280 287 292 295 301 292 285 286 282 273 271 259 257 258 264 267 268 264 260 258 255 252 245 239 235 233 232 232 233 235 237 237
269 264 262 261 260 259 261 262 262 264 272 279 283 284 292 299 290 282 284 280 265 259 255 258 255 250 265 270 269 266 259 253 252 247 242 237 234 233 234 235 238 238 236
274 274 273 270 268 263 263 263 264 266 268 271 277 280 286 291 286 280 282 274 265 254 259 258 252 260 264 271 269 267 266 259 253 247 246 241 237 236 239 240 241 243 242
279 280 282 280 269 269 267 265 266 265 267 269 275 274 283 284 281 271 270 269 272 267 263 262 258 261 269 272 272 270 268 264 259 254 250 247 244 242 243 245 245 244 243
285 287 288 283 276 262 265 264 266 264 265 268 272 278 278 279 282 281 275 271 279 280 272 264 264 263 269 272 270 269 268 263 259 257 255 252 249 247 248 248 248 248 249
287 287 283 283 274 268 266 266 266 265 268 270 276 279 278 276 279 282 281 280 281 282 278 271 265 258 267 273 272 270 268 267 265 263 260 256 253 252 252 252 251 249 250
290 287 285 282 279 274 269 266 267 269 271 274 276 275 274 272 275 278 279 280 282 282 281 275 268 260 263 267 269 267 265 264 263 262 263 261 258 256 254 252 252 252 252
301 300 297 291 283 275 271 270 272 274 275 276 277 278 277 277 277 279 280 280 277 275 274 273 271 268 265 267 267 264 263 263 264 263 261 260 258 256 256 256 256 255 252
307 305 305 304 302 298 294 284 274 270 273 275 278 281 282 282 282 279 278 278 277 276 273 271 270 270 270 270 267 264 261 260 261 261 258 258 258 255 253 254 254 254 254
311 310 309 308 307 305 303 301 299 294 288 283 278 273 274 274 275 279 283 285 286 284 281 277 274 273 271 271 271 270 267 264 259 257 256 255 254 254 252 252 252 254 253
315 314 312 309 308 306 306 303 300 298 298 297 295 295 296 291 286 286 277 282 279 279 280 281 281 277 275 274 272 272 270 267 265 261 259 259 255 254 255 255 255 254 252